Find Kosmos-2522

NORAD ID: 42939 Int'l Des: 2017-055 Owner: VVKOV/IACG Country: RU Constellation: GLONASS operational
MEOCIRCULAR

Live-Position

3D-Globus wird geladen...

Über Kosmos-2522

Beschreibung wird geladen...

Nächste Überflüge

Passes for default location (London). Set your location on the main map for personalized predictions.

Höhenverlauf

Loading altitude history...

Zweizeiliger Elementsatz

1 42939U 17055A 26123.07413898 .00000043 00000-0 00000+0 0 9995
2 42939 64.0762 193.4192 0009539 236.7064 123.2797 2.13101871 67016
Epoch: 3. Mai 2026 • Age: 60 hours

Aktueller Status

Höhe 19155.1 km
Geschwindigkeit 3.95 km/s
Subsatellitenpunkt 59.76°N, 107.7°W
Startdatum 22. Sept. 2017
Alter 8.6 years
Typ other

Technische Details

Klassifizierung Payload
Masse 1450.00 kg
Trockenmasse 1200.00 kg
Gesamtmasse 1450.00 kg
Länge 4.00 m
Durchmesser 1.50 m
Spannweite 7.80 m
Form Cyl + Ant + 2 Pan
Hersteller RESH
Bus-Typ Uragan
Phasenstatus In Orbit
Besitzer/Staat VVKOV/IACG/RU

Most Searched